BLOCK DM-SL R/B (44904 NORAD) Tracking and Keplerian Element Data

This shows tracking and keplerian element data for the satellite.

Feedback or suggestion? Click here.




ElementValue
Catalog44904
NameBLOCK DM-SL R/B
Epoch Orbit24
Epoch Day16.80040593
Epoch Year2020
RAAN272.7741
Inclination0.41
Eccentricity0.0079272
Argument of Perigee31.2566
Mean Anonmoly55.2108
Mean Motion1.02969654
Decay Rate-6.7E-07
L11 44904U 19095B 20016.80040593 -.00000067 00000-0 00000+0 0 9996
L22 44904 0.4100 272.7741 0079272 31.2566 55.2108 1.02969654 247

Live tracking and technical data element details for BLOCK DM-SL R/B (NORAD 44904). BLOCK DM-SL R/B can be tracked NOW for your location showing map with azimuth and elevation plus other details from your city location.

Track the satellite on the map from your city or location and see movement details for azimuth, elevation, latitude, longitude, range, height, and movement on the map or in text.







IsCatalogInMostPopularTable: catalog: 44904, numindb: 6
Update: records affected: 1



GetName: 44904 BLOCK DM-SL R/B

Hit Count: updated at: Sat, 18 Jan 2020 18:03:21 GMT